#timestamp,LO_Frequency,Hit,StdDev 
1595535235.5,286047025.5,P
1595535255.3,286047026.4,P
1595535275.1,286047026.0,P
1595535295.9,286047027.8,Y
1595535315.7,286047002.4,P
1595535335.6,286047001.5,N
1595535355.4,286047003.1,N
1595535375.2,286047003.9,N
1595535395.1,286047003.1,N
1595535396.0,286047003.1,N
1595535415.8,286047003.4,N
1595535435.7,286047005.8,N
1595535455.5,286047007.4,N
1595535475.3,286047004.7,N
1595535495.2,286047007.6,N
1595535515.0,286047007.4,N
1595535515.9,286047007.4,N
1595535535.8,286047007.1,N
1595535555.6,286047008.9,N
1595535575.4,286047007.8,N
1595535595.3,286047010.4,N
1595535615.1,286047007.7,N
1595535635.8,286047007.7,N
1595535655.7,286047010.6,N
1595535675.5,286047009.4,N
1595535695.4,286047009.6,N
1595535715.2,286047010.0,N
1595535735.0,286047009.4,N
1595535735.9,286047009.4,N
1595535755.8,286047010.1,N
1595535775.6,286047012.4,N
1595535795.4,286047011.6,N
1595535815.3,286047014.0,Y
1595535835.1,286047006.6,P
1595535855.9,286047004.7,P
1595535875.7,286047006.7,P
1595535895.5,286047006.7,Y
1595535915.4,286047001.9,P
1595535935.2,286047001.9,N
1595535955.0,286047001.6,N
1595535956.0,286047001.6,N
1595535975.8,286047004.4,N
1595535995.6,286047004.3,N
1595536015.5,286047003.9,N
1595536035.3,286047003.6,N
1595536055.1,286047004.2,N
1595536075.9,286047003.8,N
1595536095.7,286047003.7,N
1595536115.5,286047003.0,N
1595536135.4,286047003.3,N
1595536155.2,286047003.0,N
1595536175.1,286047005.0,Y
1595536176.0,286047005.0,P
1595536195.8,286047002.2,N
1595536215.7,286047002.8,N
1595536235.5,286047001.6,N
1595536255.3,286047001.4,N
1595536275.2,286047004.2,Y
1595536295.0,286047000.6,P
1595536295.9,286047000.6,N
1595536315.7,286047000.5,N
1595536335.6,286047000.9,N
1595536355.4,286046999.9,N
1595536375.3,286047000.4,N
1595536395.1,286047004.0,Y
1595536396.0,286047004.0,P
1595536415.8,286047002.5,N
1595536435.7,286047001.9,N
1595536455.5,286047002.5,N
1595536475.4,286047004.0,Y
1595536495.2,286047002.2,P
1595536515.0,286047004.4,P
1595536515.9,286047004.4,P
1595536535.8,286047001.7,N
1595536555.6,286047003.9,Y
1595536575.4,286047000.6,P
1595536595.3,286047000.3,N
1595536615.1,286047002.7,N
1595536635.9,286047002.6,N
1595536655.7,286047002.5,N
1595536675.5,286047001.6,N
1595536695.4,286047002.1,N
1595536715.2,286047001.7,N
1595536735.1,286047004.1,Y
1595536736.0,286047004.1,P
1595536755.8,286047000.1,N
1595536775.6,286047000.1,N
1595536795.5,286047002.0,N
1595536815.3,286047002.0,N
1595536835.1,286047002.3,N
1595536855.9,286047002.0,N
1595536875.7,286047001.7,N
1595536895.6,286047004.3,Y
1595536915.4,286047002.8,P
1595536935.2,286047003.9,P
1595536955.1,286047001.8,N
1595536956.0,286047001.8,N
1595536975.8,286047004.0,Y
1595536995.7,286046999.7,P
1595537015.5,286047002.3,N
1595537035.3,286047000.3,N
1595537055.2,286046999.8,N
1595537075.0,286047002.0,N
1595537075.9,286047002.0,N
1595537095.7,286047001.4,N
1595537115.6,286047003.3,Y
1595537135.4,286047004.2,P
1595537155.3,286047003.1,N
1595537175.1,286047003.6,N
1595537195.8,286047003.6,Y
1595537215.7,286046999.9,P
1595537235.5,286047002.6,N
1595537255.4,286047001.9,N
1595537275.2,286047001.9,N
1595537295.0,286047003.9,Y
1595537295.9,286047003.9,P
1595537315.8,286047001.6,N
1595537335.6,286047002.1,N
1595537355.4,286047001.6,N
1595537375.3,286047001.9,N
1595537395.1,286047004.1,Y
1595537415.9,286047000.3,P
1595537435.7,286047002.8,N
1595537455.5,286047000.1,N
1595537475.4,286047002.6,N
1595537495.2,286047002.1,N
1595537515.1,286047001.4,N
1595537516.0,286047001.4,N
1595537535.8,286047001.6,N
1595537555.6,286047004.3,Y
1595537575.5,286047002.3,P
1595537595.3,286047002.5,P
1595537615.2,286047003.6,P
1595537635.9,286047003.8,Y
1595537655.7,286047002.7,P
1595537675.6,286046999.9,N
1595537695.4,286047000.2,N
1595537715.2,286047002.6,N
1595537735.1,286047002.5,N
1595537736.0,286047002.5,N
1595537755.8,286047002.4,N
1595537775.7,286047002.1,N
1595537795.5,286047004.0,Y
1595537815.3,286046999.9,P
1595537835.2,286047002.4,N
1595537855.0,286047001.5,N
1595537855.9,286047001.5,N
1595537875.8,286047001.6,N
1595537895.6,286047003.2,Y
1595537915.4,286047002.4,P
1595537935